2022/12/18 00:00:00, 9.7,-3.7
2022/12/18 00:10:00, 9.7,-3.8
2022/12/18 00:20:00, 9.8,-3.4
2022/12/18 00:30:00,10.1,-4.1
2022/12/18 00:40:00,10.1,-4.0
2022/12/18 00:50:00,10.1,-3.9
2022/12/18 01:00:00,10.0,-3.9
2022/12/18 01:10:00,10.2,-4.0
2022/12/18 01:20:00,10.5,-4.2
2022/12/18 01:30:00,10.6,-4.4
2022/12/18 01:40:00,10.7,-4.1
2022/12/18 01:50:00,11.2,-4.2
2022/12/18 02:00:00,11.3,-4.2
2022/12/18 02:10:00,11.5,-4.2
2022/12/18 02:20:00,11.9,-4.3
2022/12/18 02:30:00,12.1,-4.3
2022/12/18 02:40:00,12.3,-4.5
2022/12/18 02:50:00,12.8,-4.4
2022/12/18 03:00:00,13.0,-4.6
2022/12/18 03:10:00,13.1,-4.5
2022/12/18 03:20:00,13.2,-4.6
2022/12/18 03:30:00,13.4,-4.6
2022/12/18 03:40:00,13.6,-4.8
2022/12/18 03:50:00,13.8,-4.8
2022/12/18 04:00:00,14.0,-4.9
2022/12/18 04:10:00,14.0,-5.1
2022/12/18 04:20:00,13.8,-5.1
2022/12/18 04:30:00,13.9,-5.2
2022/12/18 04:40:00,14.0,-5.3
2022/12/18 04:50:00,14.1,-5.4
2022/12/18 05:00:00,14.3,-5.5
2022/12/18 05:10:00,14.2,-5.6
2022/12/18 05:20:00,14.2,-5.7
2022/12/18 05:30:00,14.2,-5.7
2022/12/18 05:40:00,14.3,-5.7
2022/12/18 05:50:00,14.8,-6.0
2022/12/18 06:00:00,15.0,-6.2
2022/12/18 06:10:00,15.1,-6.3
2022/12/18 06:20:00,15.4,-6.0
2022/12/18 06:30:00,15.6,-6.5
2022/12/18 06:40:00,15.7,-6.4
2022/12/18 06:50:00,15.7,-6.4
2022/12/18 07:00:00,15.6,-6.4
2022/12/18 07:10:00,15.6,-6.7
2022/12/18 07:20:00,15.6,-6.8
2022/12/18 07:30:00,15.6,-6.8
2022/12/18 07:40:00,15.5,-6.7
2022/12/18 07:50:00,15.5,-7.0
2022/12/18 08:00:00,15.5,-6.8
2022/12/18 08:10:00,15.6,-6.6
2022/12/18 08:20:00,15.6,-6.4
2022/12/18 08:30:00,15.6,-6.2
2022/12/18 08:40:00,15.6,-5.6
2022/12/18 08:50:00,15.6,-5.8
2022/12/18 09:00:00,15.9,-5.9
2022/12/18 09:10:00,15.9,-6.6
2022/12/18 09:20:00,16.3,-6.8
2022/12/18 09:30:00,16.4,-6.4
2022/12/18 09:40:00,16.6,-6.6
2022/12/18 09:50:00,17.2,-6.5
2022/12/18 10:00:00,17.7,-6.0
2022/12/18 10:10:00,17.7,-7.0
2022/12/18 10:20:00,17.9,-6.2
2022/12/18 10:30:00,18.3,-6.0
2022/12/18 10:40:00,18.5,-6.3
2022/12/18 10:50:00,18.6,-6.7
2022/12/18 11:00:00,19.2,-6.9
2022/12/18 11:10:00,19.5,-6.5
2022/12/18 11:20:00,19.9,-4.7
2022/12/18 11:30:00,19.7,-5.0
2022/12/18 11:40:00,19.6,-5.2
2022/12/18 11:50:00,19.7,-4.3
2022/12/18 12:00:00,19.7,-4.3
2022/12/18 12:10:00,19.6,-4.3
2022/12/18 12:20:00,19.6,-3.9
2022/12/18 12:30:00,19.4,-4.0
2022/12/18 12:40:00,19.3,-4.6
2022/12/18 12:50:00,19.2,-5.0
2022/12/18 13:00:00,19.3,-4.5
2022/12/18 13:10:00,19.3,-4.5
2022/12/18 13:20:00,19.3,-1.9
2022/12/18 13:30:00,19.2,-2.6
2022/12/18 13:40:00,19.1,-3.6
2022/12/18 13:50:00,19.0,-3.8
2022/12/18 14:00:00,19.0,-2.3
2022/12/18 14:10:00,18.7,-4.3
2022/12/18 14:20:00,18.6,-4.0
2022/12/18 14:30:00,18.6,-4.6
2022/12/18 14:40:00,18.5,-3.7
2022/12/18 14:50:00,18.4,-3.9
2022/12/18 15:00:00,18.2,-4.5
2022/12/18 15:10:00,18.0,-5.0
2022/12/18 15:20:00,17.9,-5.0
2022/12/18 15:30:00,17.8,-5.4
2022/12/18 15:40:00,17.7,-5.2
2022/12/18 15:50:00,17.6,-5.4
2022/12/18 16:00:00,17.6,-5.0
2022/12/18 16:10:00,17.5,-4.8
2022/12/18 16:20:00,17.4,-5.5
2022/12/18 16:30:00,17.3,-5.6
2022/12/18 16:40:00,17.3,-6.0
2022/12/18 16:50:00,17.2,-6.5
2022/12/18 17:00:00,17.1,-6.3
2022/12/18 17:10:00,17.0,-6.6
2022/12/18 17:20:00,17.0,-6.9
2022/12/18 17:30:00,16.9,-6.7
2022/12/18 17:40:00,16.8,-6.5
2022/12/18 17:50:00,16.7,-7.0
2022/12/18 18:00:00,16.7,-6.9
2022/12/18 18:10:00,16.6,-6.8
2022/12/18 18:20:00,16.6,-6.7
2022/12/18 18:30:00,16.5,-6.9
2022/12/18 18:40:00,16.5,-6.7
2022/12/18 18:50:00,16.4,-7.1
2022/12/18 19:00:00,16.3,-7.1
2022/12/18 19:10:00,16.3,-6.9
2022/12/18 19:20:00,16.2,-6.9
2022/12/18 19:30:00,16.2,-6.8
2022/12/18 19:40:00,16.1,-7.0
2022/12/18 19:50:00,16.0,-7.1
2022/12/18 20:00:00,16.0,-6.9
2022/12/18 20:10:00,15.9,-6.9
2022/12/18 20:20:00,15.9,-7.1
2022/12/18 20:30:00,15.9,-7.0
2022/12/18 20:40:00,15.8,-6.9
2022/12/18 20:50:00,15.8,-6.9
2022/12/18 21:00:00,15.7,-7.0
2022/12/18 21:10:00,15.7,-6.8
2022/12/18 21:20:00,15.7,-6.8
2022/12/18 21:30:00,15.6,-7.1
2022/12/18 21:40:00,15.7,-7.4
2022/12/18 21:50:00,15.6,-7.6
2022/12/18 22:00:00,15.5,-7.6
2022/12/18 22:10:00,15.5,-7.7
2022/12/18 22:20:00,15.5,-7.6
2022/12/18 22:30:00,15.5,-7.7
2022/12/18 22:40:00,15.4,-7.3
2022/12/18 22:50:00,15.4,-7.2
2022/12/18 23:00:00,15.3,-7.6
2022/12/18 23:10:00,15.3,-7.4
2022/12/18 23:20:00,15.2,-7.8
2022/12/18 23:30:00,15.1,-7.4
2022/12/18 23:40:00,15.1,-7.1
2022/12/18 23:50:00,15.0,-7.1
